ATLAS 5 CENTAUR DEB, 44673

Orbit data source: Space-Track

ATLAS 5 CENTAUR DEB, 44673 is space debris in HEO originally from a launch on Wed, 17 Oct 2018 UTC launched from the Air Force Eastern Test Range (AFETR). Debris objects in space refer to the collection of defunct objects orbiting the Earth. Examples of debris include non-operational satellites, rocket bodies, and fragments generated from explosions, collisions, or faulty payload assembly.

Loading next visibility...
Identifier
44673, 2018-079AK
Orbit
HEO
Last TLE update
2 days ago
Origin
Flag of USUnited Launch Alliance/Lockheed Martin (US)
Manufacturer
ULA Decatur
Mission
Spacecraft
Bus & Motor
Unknown
Mass
Unknown
Launch date (UTC)
2018-10-17 (7 years ago)
Launch vehicle
Unknown
Launch site
Air Force Eastern Test Range (AFETR)
Object type
Payload
Rocket body
Debris
Shape & HBR
Unknown
Radar Cross Section
RCS unknown

Expand to show TLE details & history

TLE from 2 days ago
0 ATLAS 5 CENTAUR DEB
1 44673U 18079AK  25189.99691640 -.00000137  00000-0  00000-0 0  9990
2 44673  12.9536  71.2489 4714635 240.5351  64.4078  1.77547278 43771
Epoch: 2025-07-08T23:55Z
TLE epoch observation values (Epoch: 2025-07-08T23:55:33.576Z)
Latitude
0.00003°
Longitude
145.18327°
Altitude
22,817.825 km
Speed
3.67 km/s
True Right ascension
04h 45m 01s
True Declination
0° 00' 00"
Sunlit
Object was in daylight at epoch
Visualization orbit readout
Latitude
0.64561°
Longitude
-37.7587°
Altitude
12,118.175 km
Speed
5.41 km/s
Apparent Right ascension
17h 05m 06s
Apparent Declination
-15° 16' 41"
Sunlit
Object is in daylight
Visualization observer readout
Local Sidereal Time
14:58:57
Azimuth
145.335° SSE
Elevation
27.484°
Doppler factor
1
Orbital elements
Apogee altitude
36,016.084 km
Perigee altitude
8,849.487 km
Semi-major axis
28,810.923 km
Eccentricity
0.47146
Inclination
12.9536°
RAAN
71.2489°
Arg. of periapsis
240.5351°
True anomaly
Unknown
Mean anomaly
64.4078°
Eccentric anomaly
Unknown
Mean motion
0.44382 °/min
Orbital period
811.14 mins
BSTAR
0
Loading maneuver chart data...
Loading SW <> Apogee altitude chart data...

ATLAS 5 CENTAUR DEB Visibility forecast

Observer location: undefined°, undefined°

Span
Click to sort rows by Start time (UTC) header in descending order
Start Az.
Max El. time (UTC)
Max El. Az.
Max El.
End time (UTC)
End Az.
20 mins2025-07-11 02:42:21.320Z145.361° SSE2025-07-11 02:42:21.320Z145.361° SSE24.751°2025-07-11 03:02:21.320Z130.97° SE
468 mins2025-07-11 18:54:21.320Z241.269° WSW2025-07-11 22:00:21.320Z243.846° WSW27.6°2025-07-12 02:42:21.320Z260.273° W
|